| time (UTC) | temp C | wind direction | speed KPH | gust KPH | rain 1hr cm | rain 24hr cm | rain mn cm | humidity % | barometer mb |
| 20260507065024 | 19 | 0 | 0.0 | 0.0 | 0.00 | 0.00 | 0.00 | 41 | 1012.4 |
| 20260507064552 | 20 | 0 | 0.0 | 0.0 | 0.00 | 0.00 | 0.00 | 40 | 1012.4 |
| 20260507064024 | 20 | 0 | 0.0 | 0.0 | 0.00 | 0.00 | 0.00 | 40 | 1012.4 |
| 20260507063524 | 20 | 0 | 0.0 | 0.0 | 0.00 | 0.00 | 0.00 | 40 | 1012.3 |
| 20260507063047 | 20 | 0 | 0.0 | 0.0 | 0.00 | 0.00 | 0.00 | 40 | 1012.3 |
| 20260507062528 | 20 | 0 | 0.0 | 0.0 | 0.00 | 0.00 | 0.00 | 40 | 1012.2 |
| 20260507062024 | 20 | 0 | 0.0 | 0.0 | 0.00 | 0.00 | 0.00 | 39 | 1012.3 |
| 20260507061541 | 20 | 0 | 0.0 | 0.0 | 0.00 | 0.00 | 0.00 | 40 | 1012.3 |
| 20260507061024 | 20 | 0 | 0.0 | 0.0 | 0.00 | 0.00 | 0.00 | 40 | 1012.3 |
| 20260507060524 | 20 | 0 | 0.0 | 0.0 | 0.00 | 0.00 | 0.00 | 39 | 1012.3 |
| 20260507060039 | 20 | 0 | 0.0 | 0.0 | 0.00 | 0.00 | 0.00 | 38 | 1012.3 |
| 20260507055525 | 20 | 0 | 0.0 | 0.0 | 0.00 | 0.00 | 0.00 | 38 | 1012.3 |
| 20260507055024 | 21 | 0 | 0.0 | 0.0 | 0.00 | 0.00 | 0.00 | 38 | 1012.3 |
| 20260507054539 | 21 | 0 | 0.0 | 0.0 | 0.00 | 0.00 | 0.00 | 38 | 1012.2 |
| 20260507054024 | 21 | 0 | 0.0 | 0.0 | 0.00 | 0.00 | 0.00 | 38 | 1012.2 |
| 20260507053524 | 21 | 0 | 0.0 | 0.0 | 0.00 | 0.00 | 0.00 | 38 | 1012.3 |
| 20260507053045 | 21 | 0 | 0.0 | 0.0 | 0.00 | 0.00 | 0.00 | 37 | 1012.2 |
| 20260507052524 | 21 | 0 | 0.0 | 0.0 | 0.00 | 0.00 | 0.00 | 36 | 1012.2 |
| 20260507052026 | 21 | 0 | 0.0 | 0.0 | 0.00 | 0.00 | 0.00 | 36 | 1012.2 |
| 20260507051540 | 21 | 0 | 0.0 | 0.0 | 0.00 | 0.00 | 0.00 | 36 | 1012.3 |
| 20260507051026 | 21 | 0 | 0.0 | 0.0 | 0.00 | 0.00 | 0.00 | 35 | 1012.2 |
| 20260507050524 | 22 | 0 | 0.0 | 1.6 | 0.00 | 0.00 | 0.00 | 35 | 1012.2 |
| 20260507050041 | 22 | 0 | 0.0 | 1.6 | 0.00 | 0.00 | 0.00 | 34 | 1012.1 |
| 20260507045524 | 22 | 0 | 0.0 | 1.6 | 0.00 | 0.00 | 0.00 | 34 | 1012.1 |
| 20260507045024 | 22 | 0 | 0.0 | 0.0 | 0.00 | 0.00 | 0.00 | 34 | 1012.0 |
| 20260507044540 | 22 | 0 | 0.0 | 0.0 | 0.00 | 0.00 | 0.00 | 33 | 1012.0 |
| 20260507044023 | 22 | 0 | 0.0 | 1.6 | 0.00 | 0.00 | 0.00 | 32 | 1012.0 |
| 20260507043525 | 22 | 0 | 0.0 | 1.6 | 0.00 | 0.00 | 0.00 | 32 | 1012.0 |
| 20260507043041 | 22 | 0 | 0.0 | 1.6 | 0.00 | 0.00 | 0.00 | 31 | 1011.9 |
| 20260507042524 | 23 | 0 | 0.0 | 3.2 | 0.00 | 0.00 | 0.00 | 30 | 1011.9 |
| 20260507042024 | 23 | 0 | 0.0 | 3.2 | 0.00 | 0.00 | 0.00 | 30 | 1011.9 |
| 20260507041545 | 23 | 0 | 0.0 | 1.6 | 0.00 | 0.00 | 0.00 | 30 | 1011.9 |
| 20260507041025 | 23 | 0 | 0.0 | 1.6 | 0.00 | 0.00 | 0.00 | 29 | 1011.8 |
| 20260507040523 | 23 | 0 | 0.0 | 3.2 | 0.00 | 0.00 | 0.00 | 28 | 1011.8 |
| 20260507040042 | 23 | 0 | 0.0 | 3.2 | 0.00 | 0.00 | 0.00 | 28 | 1011.6 |
| 20260507035526 | 24 | 0 | 0.0 | 3.2 | 0.00 | 0.00 | 0.00 | 28 | 1011.7 |
| 20260507035024 | 24 | 0 | 0.0 | 3.2 | 0.00 | 0.00 | 0.00 | 27 | 1011.6 |
| 20260507034544 | 24 | 225 | 0.0 | 3.2 | 0.00 | 0.00 | 0.00 | 26 | 1011.5 |
| 20260507034024 | 24 | 225 | 0.0 | 3.2 | 0.00 | 0.00 | 0.00 | 26 | 1011.5 |
| 20260507033525 | 24 | 0 | 0.0 | 3.2 | 0.00 | 0.00 | 0.00 | 26 | 1011.4 |
| 20260507033057 | 25 | 225 | 0.0 | 1.6 | 0.00 | 0.00 | 0.00 | 26 | 1011.4 |
| 20260507032524 | 25 | 0 | 0.0 | 1.6 | 0.00 | 0.00 | 0.00 | 26 | 1011.4 |
| 20260507032024 | 25 | 0 | 0.0 | 3.2 | 0.00 | 0.00 | 0.00 | 25 | 1011.3 |
| 20260507031539 | 25 | 0 | 0.0 | 3.2 | 0.00 | 0.00 | 0.00 | 25 | 1011.3 |
| 20260507031024 | 25 | 225 | 0.0 | 3.2 | 0.00 | 0.00 | 0.00 | 25 | 1011.2 |
| 20260507030525 | 25 | 225 | 0.0 | 4.8 | 0.00 | 0.00 | 0.00 | 25 | 1011.1 |
| 20260507030040 | 25 | 0 | 0.0 | 4.8 | 0.00 | 0.00 | 0.00 | 24 | 1011.1 |
| 20260507025524 | 25 | 265 | 0.0 | 4.8 | 0.00 | 0.00 | 0.00 | 24 | 1011.1 |
| 20260507025024 | 25 | 265 | 1.6 | 6.4 | 0.00 | 0.00 | 0.00 | 24 | 1011.1 |
| 20260507024553 | 25 | 275 | 1.6 | 6.4 | 0.00 | 0.00 | 0.00 | 23 | 1010.9 |
| 20260507024024 | 26 | 250 | 3.2 | 6.4 | 0.00 | 0.00 | 0.00 | 23 | 1010.8 |
| 20260507023524 | 26 | 246 | 1.6 | 4.8 | 0.00 | 0.00 | 0.00 | 23 | 1010.8 |
| 20260507023040 | 26 | 241 | 1.6 | 4.8 | 0.00 | 0.00 | 0.00 | 22 | 1010.9 |
| 20260507022524 | 26 | 217 | 1.6 | 4.8 | 0.00 | 0.00 | 0.00 | 22 | 1010.7 |
| 20260507022024 | 26 | 0 | 0.0 | 4.8 | 0.00 | 0.00 | 0.00 | 22 | 1010.6 |
| 20260507021540 | 26 | 0 | 1.6 | 6.4 | 0.00 | 0.00 | 0.00 | 22 | 1010.6 |
| 20260507021025 | 26 | 286 | 0.0 | 6.4 | 0.00 | 0.00 | 0.00 | 22 | 1010.6 |
| 20260507020525 | 27 | 300 | 1.6 | 6.4 | 0.00 | 0.00 | 0.00 | 21 | 1010.5 |
| 20260507020039 | 27 | 291 | 1.6 | 6.4 | 0.00 | 0.00 | 0.00 | 21 | 1010.5 |
| 20260507015524 | 27 | 274 | 3.2 | 6.4 | 0.00 | 0.00 | 0.00 | 21 | 1010.4 |
| 20260507015026 | 27 | 223 | 3.2 | 12.9 | 0.00 | 0.00 | 0.00 | 20 | 1010.4 |
| 20260507014543 | 27 | 277 | 1.6 | 12.9 | 0.00 | 0.00 | 0.00 | 21 | 1010.4 |
| 20260507014024 | 27 | 305 | 4.8 | 11.3 | 0.00 | 0.00 | 0.00 | 21 | 1010.4 |
| 20260507013524 | 27 | 292 | 1.6 | 11.3 | 0.00 | 0.00 | 0.00 | 21 | 1010.5 |
| 20260507013041 | 27 | 263 | 3.2 | 11.3 | 0.00 | 0.00 | 0.00 | 20 | 1010.5 |
| 20260507012525 | 27 | 267 | 3.2 | 9.7 | 0.00 | 0.00 | 0.00 | 20 | 1010.4 |
| 20260507012025 | 28 | 330 | 3.2 | 9.7 | 0.00 | 0.00 | 0.00 | 20 | 1010.4 |
| 20260507011540 | 28 | 288 | 1.6 | 9.7 | 0.00 | 0.00 | 0.00 | 20 | 1010.5 |
| 20260507011024 | 28 | 300 | 3.2 | 11.3 | 0.00 | 0.00 | 0.00 | 20 | 1010.4 |
| 20260507010528 | 27 | 294 | 3.2 | 11.3 | 0.00 | 0.00 | 0.00 | 20 | 1010.4 |
| 20260507010041 | 27 | 311 | 4.8 | 12.9 | 0.00 | 0.00 | 0.00 | 20 | 1010.3 |
| 20260507005525 | 27 | 251 | 3.2 | 12.9 | 0.00 | 0.00 | 0.00 | 20 | 1010.4 |
| 20260507005024 | 27 | 287 | 1.6 | 9.7 | 0.00 | 0.00 | 0.00 | 20 | 1010.3 |
| 20260507004538 | 27 | 0 | 1.6 | 9.7 | 0.00 | 0.00 | 0.00 | 20 | 1010.3 |
| 20260507004024 | 27 | 329 | 3.2 | 12.9 | 0.00 | 0.00 | 0.00 | 20 | 1010.4 |
| 20260507003526 | 27 | 290 | 3.2 | 12.9 | 0.00 | 0.00 | 0.00 | 20 | 1010.4 |
| 20260507003038 | 27 | 246 | 4.8 | 12.9 | 0.00 | 0.00 | 0.00 | 20 | 1010.6 |
| 20260507002522 | 27 | 215 | 3.2 | 14.5 | 0.00 | 0.00 | 0.00 | 20 | 1010.3 |
| 20260507002025 | 28 | 237 | 6.4 | 14.5 | 0.00 | 0.00 | 0.00 | 19 | 1010.4 |
| 20260507001603 | 28 | 0 | 4.8 | 14.5 | 0.00 | 0.00 | 0.00 | 20 | 1010.3 |
| 20260507001024 | 28 | 228 | 3.2 | 11.3 | 0.00 | 0.00 | 0.00 | 20 | 1010.4 |
| 20260507000524 | 27 | 184 | 1.6 | 12.9 | 0.00 | 0.00 | 0.00 | 20 | 1010.4 |
| 20260507000038 | 27 | 0 | 3.2 | 12.9 | 0.00 | 0.00 | 0.00 | 20 | 1010.4 |
| 20260506235526 | 28 | 271 | 6.4 | 12.9 | 0.00 | 0.00 | 0.00 | 20 | 1010.5 |
| 20260506235028 | 27 | 332 | 3.2 | 11.3 | 0.00 | 0.00 | 0.00 | 20 | 1010.5 |
| 20260506234547 | 28 | 351 | 3.2 | 16.1 | 0.00 | 0.00 | 0.00 | 19 | 1010.4 |
| 20260506234025 | 28 | 319 | 3.2 | 16.1 | 0.00 | 0.00 | 0.00 | 19 | 1010.5 |
| 20260506233524 | 28 | 332 | 8.0 | 16.1 | 0.00 | 0.00 | 0.00 | 19 | 1010.5 |
| 20260506233039 | 28 | 215 | 3.2 | 12.9 | 0.00 | 0.00 | 0.00 | 19 | 1010.4 |
| 20260506232523 | 28 | 266 | 1.6 | 12.9 | 0.00 | 0.00 | 0.00 | 20 | 1010.4 |
| 20260506232027 | 28 | 301 | 3.2 | 12.9 | 0.00 | 0.00 | 0.00 | 20 | 1010.5 |
| 20260506231539 | 28 | 288 | 4.8 | 12.9 | 0.00 | 0.00 | 0.00 | 20 | 1010.6 |
| 20260506231025 | 28 | 270 | 1.6 | 14.5 | 0.00 | 0.00 | 0.00 | 19 | 1010.7 |
| 20260506230524 | 28 | 296 | 3.2 | 14.5 | 0.00 | 0.00 | 0.00 | 19 | 1010.8 |
| 20260506230040 | 28 | 284 | 3.2 | 14.5 | 0.00 | 0.00 | 0.00 | 19 | 1010.8 |
| 20260506225524 | 28 | 164 | 0.0 | 12.9 | 0.00 | 0.00 | 0.00 | 20 | 1010.9 |
| 20260506225024 | 28 | 211 | 3.2 | 12.9 | 0.00 | 0.00 | 0.00 | 20 | 1011.1 |
| 20260506224542 | 28 | 273 | 4.8 | 12.9 | 0.00 | 0.00 | 0.00 | 20 | 1011.0 |
| 20260506224021 | 27 | 231 | 0.0 | 16.1 | 0.00 | 0.00 | 0.00 | 20 | 1011.0 |
| 20260506223524 | 27 | 348 | 1.6 | 16.1 | 0.00 | 0.00 | 0.00 | 21 | 1011.1 |
| 20260506223035 | 27 | 299 | 8.0 | 17.7 | 0.00 | 0.00 | 0.00 | 21 | 1011.2 |
| 20260506222524 | 27 | 0 | 4.8 | 17.7 | 0.00 | 0.00 | 0.00 | 21 | 1011.2 |
| 20260506222023 | 27 | 352 | 1.6 | 12.9 | 0.00 | 0.00 | 0.00 | 21 | 1011.3 |
| 20260506221542 | 27 | 60 | 3.2 | 12.9 | 0.00 | 0.00 | 0.00 | 21 | 1011.2 |
| 20260506221026 | 27 | 68 | 6.4 | 12.9 | 0.00 | 0.00 | 0.00 | 21 | 1011.3 |
| 20260506220525 | 27 | 54 | 4.8 | 14.5 | 0.00 | 0.00 | 0.00 | 21 | 1011.4 |
| 20260506220048 | 27 | 323 | 4.8 | 17.7 | 0.00 | 0.00 | 0.00 | 21 | 1011.5 |
| 20260506215523 | 27 | 15 | 6.4 | 17.7 | 0.00 | 0.00 | 0.00 | 21 | 1011.6 |
| 20260506215025 | 27 | 327 | 6.4 | 17.7 | 0.00 | 0.00 | 0.00 | 21 | 1011.6 |
| 20260506214539 | 27 | 315 | 6.4 | 17.7 | 0.00 | 0.00 | 0.00 | 20 | 1011.7 |
| 20260506214028 | 28 | 194 | 4.8 | 12.9 | 0.00 | 0.00 | 0.00 | 21 | 1011.8 |
| 20260506213525 | 27 | 221 | 0.0 | 14.5 | 0.00 | 0.00 | 0.00 | 21 | 1011.9 |
| 20260506213038 | 27 | 0 | 1.6 | 16.1 | 0.00 | 0.00 | 0.00 | 21 | 1012.0 |
| 20260506212527 | 27 | 279 | 4.8 | 16.1 | 0.00 | 0.00 | 0.00 | 21 | 1012.1 |
| 20260506212024 | 27 | 44 | 4.8 | 16.1 | 0.00 | 0.00 | 0.00 | 22 | 1012.1 |
| 20260506211552 | 27 | 352 | 3.2 | 14.5 | 0.00 | 0.00 | 0.00 | 22 | 1012.1 |
| 20260506211024 | 26 | 65 | 6.4 | 17.7 | 0.00 | 0.00 | 0.00 | 22 | 1012.2 |
| 20260506210524 | 26 | 44 | 4.8 | 17.7 | 0.00 | 0.00 | 0.00 | 21 | 1012.3 |
| 20260506210043 | 26 | 0 | 4.8 | 16.1 | 0.00 | 0.00 | 0.00 | 22 | 1012.4 |
| 20260506205524 | 26 | 327 | 4.8 | 22.5 | 0.00 | 0.00 | 0.00 | 22 | 1012.4 |
| 20260506205024 | 27 | 320 | 9.7 | 22.5 | 0.00 | 0.00 | 0.00 | 22 | 1012.5 |
| 20260506204542 | 27 | 333 | 4.8 | 14.5 | 0.00 | 0.00 | 0.00 | 23 | 1012.6 |
| 20260506204023 | 27 | 90 | 1.6 | 14.5 | 0.00 | 0.00 | 0.00 | 23 | 1012.5 |
| 20260506203524 | 27 | 37 | 3.2 | 16.1 | 0.00 | 0.00 | 0.00 | 22 | 1012.7 |
| 20260506203041 | 27 | 298 | 4.8 | 17.7 | 0.00 | 0.00 | 0.00 | 22 | 1012.7 |
| 20260506202525 | 26 | 258 | 6.4 | 17.7 | 0.00 | 0.00 | 0.00 | 23 | 1012.7 |
| 20260506202025 | 26 | 352 | 4.8 | 17.7 | 0.00 | 0.00 | 0.00 | 23 | 1012.9 |
| 20260506201537 | 26 | 274 | 3.2 | 14.5 | 0.00 | 0.00 | 0.00 | 24 | 1012.8 |
| 20260506201025 | 26 | 348 | 6.4 | 14.5 | 0.00 | 0.00 | 0.00 | 24 | 1012.9 |
| 20260506200524 | 27 | 56 | 4.8 | 9.7 | 0.00 | 0.00 | 0.00 | 22 | 1012.9 |
| 20260506200038 | 26 | 168 | 3.2 | 14.5 | 0.00 | 0.00 | 0.00 | 24 | 1012.9 |
| 20260506195525 | 26 | 238 | 3.2 | 14.5 | 0.00 | 0.00 | 0.00 | 23 | 1013.1 |
| 20260506195025 | 27 | 288 | 1.6 | 6.4 | 0.00 | 0.00 | 0.00 | 24 | 1013.1 |
| 20260506194544 | 26 | 175 | 1.6 | 14.5 | 0.00 | 0.00 | 0.00 | 24 | 1013.1 |
| 20260506194027 | 25 | 134 | 3.2 | 16.1 | 0.00 | 0.00 | 0.00 | 24 | 1013.2 |
| 20260506193524 | 25 | 298 | 6.4 | 16.1 | 0.00 | 0.00 | 0.00 | 25 | 1013.2 |
| 20260506193045 | 26 | 278 | 4.8 | 14.5 | 0.00 | 0.00 | 0.00 | 24 | 1013.3 |
| 20260506192524 | 26 | 331 | 3.2 | 11.3 | 0.00 | 0.00 | 0.00 | 25 | 1013.4 |
| 20260506192024 | 25 | 0 | 3.2 | 14.5 | 0.00 | 0.00 | 0.00 | 25 | 1013.4 |
| 20260506191539 | 25 | 120 | 1.6 | 16.1 | 0.00 | 0.00 | 0.00 | 26 | 1013.5 |
| 20260506191025 | 25 | 315 | 3.2 | 16.1 | 0.00 | 0.00 | 0.00 | 25 | 1013.5 |
| 20260506190525 | 25 | 323 | 8.0 | 17.7 | 0.00 | 0.00 | 0.00 | 25 | 1013.5 |
| 20260506190039 | 25 | 298 | 4.8 | 17.7 | 0.00 | 0.00 | 0.00 | 25 | 1013.5 |
| 20260506185524 | 25 | 328 | 3.2 | 16.1 | 0.00 | 0.00 | 0.00 | 25 | 1013.6 |
| 20260506185025 | 25 | 325 | 4.8 | 11.3 | 0.00 | 0.00 | 0.00 | 26 | 1013.6 |
| 20260506184544 | 25 | 26 | 3.2 | 11.3 | 0.00 | 0.00 | 0.00 | 25 | 1013.7 |
| 20260506184027 | 25 | 188 | 3.2 | 12.9 | 0.00 | 0.00 | 0.00 | 27 | 1013.9 |
| 20260506183527 | 25 | 331 | 4.8 | 17.7 | 0.00 | 0.00 | 0.00 | 27 | 1014.0 |
| 20260506183042 | 25 | 167 | 6.4 | 19.3 | 0.00 | 0.00 | 0.00 | 27 | 1014.0 |
| 20260506182524 | 25 | 183 | 9.7 | 19.3 | 0.00 | 0.00 | 0.00 | 27 | 1014.1 |
| 20260506182026 | 25 | 196 | 6.4 | 16.1 | 0.00 | 0.00 | 0.00 | 27 | 1014.3 |
| 20260506181554 | 24 | 216 | 4.8 | 16.1 | 0.00 | 0.00 | 0.00 | 29 | 1014.2 |
| 20260506181025 | 24 | 205 | 3.2 | 14.5 | 0.00 | 0.00 | 0.00 | 29 | 1014.4 |
| 20260506180526 | 23 | 257 | 4.8 | 16.1 | 0.00 | 0.00 | 0.00 | 30 | 1014.2 |
| 20260506180037 | 23 | 324 | 8.0 | 16.1 | 0.00 | 0.00 | 0.00 | 30 | 1014.3 |
| 20260506175527 | 23 | 289 | 3.2 | 12.9 | 0.00 | 0.00 | 0.00 | 30 | 1014.3 |
| 20260506175025 | 23 | 0 | 3.2 | 12.9 | 0.00 | 0.00 | 0.00 | 30 | 1014.3 |
| 20260506174538 | 23 | 220 | 3.2 | 12.9 | 0.00 | 0.00 | 0.00 | 31 | 1014.3 |
| 20260506174025 | 23 | 45 | 1.6 | 11.3 | 0.00 | 0.00 | 0.00 | 31 | 1014.3 |
| 20260506173525 | 23 | 314 | 3.2 | 11.3 | 0.00 | 0.00 | 0.00 | 31 | 1014.3 |
| 20260506173105 | 23 | 298 | 3.2 | 8.0 | 0.00 | 0.00 | 0.00 | 31 | 1014.3 |
| 20260506172526 | 23 | 327 | 1.6 | 9.7 | 0.00 | 0.00 | 0.00 | 31 | 1014.2 |
| 20260506172024 | 22 | 300 | 0.0 | 9.7 | 0.00 | 0.00 | 0.00 | 32 | 1014.2 |
| 20260506171546 | 22 | 5 | 1.6 | 8.0 | 0.00 | 0.00 | 0.00 | 32 | 1014.2 |
| 20260506171025 | 22 | 344 | 1.6 | 9.7 | 0.00 | 0.00 | 0.00 | 32 | 1014.2 |
| 20260506170525 | 22 | 305 | 1.6 | 9.7 | 0.00 | 0.00 | 0.00 | 32 | 1014.2 |
| 20260506170044 | 23 | 324 | 1.6 | 11.3 | 0.00 | 0.00 | 0.00 | 31 | 1014.2 |
| 20260506165525 | 23 | 159 | 3.2 | 11.3 | 0.00 | 0.00 | 0.00 | 31 | 1014.2 |
| 20260506165025 | 22 | 201 | 0.0 | 8.0 | 0.00 | 0.00 | 0.00 | 32 | 1014.2 |
| 20260506164539 | 22 | 198 | 1.6 | 8.0 | 0.00 | 0.00 | 0.00 | 32 | 1014.2 |
| 20260506164024 | 22 | 181 | 1.6 | 11.3 | 0.00 | 0.00 | 0.00 | 32 | 1014.1 |
| 20260506163524 | 22 | 0 | 3.2 | 12.9 | 0.00 | 0.00 | 0.00 | 32 | 1014.1 |
| 20260506163039 | 22 | 227 | 4.8 | 12.9 | 0.00 | 0.00 | 0.00 | 33 | 1014.1 |
| 20260506162525 | 21 | 213 | 0.0 | 6.4 | 0.00 | 0.00 | 0.00 | 33 | 1014.1 |
| 20260506162024 | 22 | 312 | 1.6 | 6.4 | 0.00 | 0.00 | 0.00 | 33 | 1014.1 |
| 20260506161539 | 22 | 327 | 1.6 | 6.4 | 0.00 | 0.00 | 0.00 | 32 | 1014.0 |
| 20260506161025 | 22 | 0 | 0.0 | 8.0 | 0.00 | 0.00 | 0.00 | 33 | 1014.0 |
| 20260506160524 | 22 | 147 | 1.6 | 8.0 | 0.00 | 0.00 | 0.00 | 33 | 1014.0 |
| 20260506160054 | 21 | 171 | 1.6 | 8.0 | 0.00 | 0.00 | 0.00 | 34 | 1014.0 |
| 20260506155524 | 21 | 48 | 1.6 | 8.0 | 0.00 | 0.00 | 0.00 | 34 | 1014.0 |
| 20260506155024 | 21 | 136 | 1.6 | 6.4 | 0.00 | 0.00 | 0.00 | 35 | 1014.1 |
| 20260506154544 | 20 | 0 | 0.0 | 4.8 | 0.00 | 0.00 | 0.00 | 35 | 1014.1 |
| 20260506154025 | 20 | 200 | 1.6 | 6.4 | 0.00 | 0.00 | 0.00 | 36 | 1014.1 |
| 20260506153523 | 20 | 0 | 1.6 | 6.4 | 0.00 | 0.00 | 0.00 | 37 | 1014.1 |
| 20260506153039 | 20 | 336 | 1.6 | 4.8 | 0.00 | 0.00 | 0.00 | 37 | 1014.0 |
| 20260506152524 | 20 | 302 | 1.6 | 6.4 | 0.00 | 0.00 | 0.00 | 38 | 1014.0 |
| 20260506152028 | 19 | 328 | 0.0 | 6.4 | 0.00 | 0.00 | 0.00 | 38 | 1014.0 |
| 20260506151539 | 19 | 317 | 1.6 | 6.4 | 0.00 | 0.00 | 0.00 | 38 | 1014.1 |
| 20260506151024 | 19 | 329 | 1.6 | 6.4 | 0.00 | 0.00 | 0.00 | 39 | 1014.0 |
| 20260506150524 | 18 | 0 | 0.0 | 6.4 | 0.00 | 0.00 | 0.00 | 40 | 1014.0 |
| 20260506150038 | 18 | 255 | 0.0 | 4.8 | 0.00 | 0.00 | 0.00 | 41 | 1014.0 |
| 20260506145525 | 18 | 0 | 0.0 | 4.8 | 0.00 | 0.00 | 0.00 | 41 | 1013.9 |
| 20260506145025 | 18 | 304 | 0.0 | 4.8 | 0.00 | 0.00 | 0.00 | 41 | 1013.9 |
| 20260506144545 | 18 | 327 | 0.0 | 4.8 | 0.00 | 0.00 | 0.00 | 41 | 1013.8 |
| 20260506144024 | 18 | 94 | 0.0 | 3.2 | 0.00 | 0.00 | 0.00 | 41 | 1013.9 |
| 20260506143525 | 18 | 0 | 0.0 | 1.6 | 0.00 | 0.00 | 0.00 | 41 | 1013.8 |
| 20260506143039 | 18 | 0 | 0.0 | 3.2 | 0.00 | 0.00 | 0.00 | 41 | 1013.8 |
| 20260506142525 | 17 | 0 | 0.0 | 3.2 | 0.00 | 0.00 | 0.00 | 43 | 1013.8 |
| 20260506142025 | 17 | 0 | 0.0 | 3.2 | 0.00 | 0.00 | 0.00 | 44 | 1013.7 |
| 20260506141540 | 17 | 101 | 0.0 | 3.2 | 0.00 | 0.00 | 0.00 | 45 | 1013.7 |
| 20260506141027 | 16 | 0 | 0.0 | 1.6 | 0.00 | 0.00 | 0.00 | 46 | 1013.5 |
| 20260506140525 | 16 | 0 | 0.0 | 3.2 | 0.00 | 0.00 | 0.00 | 46 | 1013.5 |
| 20260506140039 | 16 | 0 | 0.0 | 4.8 | 0.00 | 0.00 | 0.00 | 47 | 1013.5 |
| 20260506135525 | 15 | 155 | 0.0 | 8.0 | 0.00 | 0.00 | 0.00 | 47 | 1013.3 |
| 20260506135024 | 15 | 154 | 0.0 | 8.0 | 0.00 | 0.00 | 0.00 | 48 | 1013.4 |
| 20260506134538 | 15 | 154 | 3.2 | 6.4 | 0.00 | 0.00 | 0.00 | 48 | 1013.4 |
| 20260506134024 | 15 | 155 | 0.0 | 3.2 | 0.00 | 0.00 | 0.00 | 50 | 1013.3 |
| 20260506133527 | 15 | 0 | 0.0 | 3.2 | 0.00 | 0.00 | 0.00 | 49 | 1013.3 |
| 20260506133041 | 14 | 0 | 0.0 | 3.2 | 0.00 | 0.00 | 0.00 | 50 | 1013.3 |
| 20260506132525 | 14 | 0 | 0.0 | 3.2 | 0.00 | 0.00 | 0.00 | 50 | 1013.2 |
| 20260506132024 | 13 | 0 | 0.0 | 3.2 | 0.00 | 0.00 | 0.00 | 51 | 1013.2 |
| 20260506131604 | 13 | 0 | 0.0 | 4.8 | 0.00 | 0.00 | 0.00 | 51 | 1013.2 |
| 20260506131025 | 13 | 0 | 1.6 | 4.8 | 0.00 | 0.00 | 0.00 | 51 | 1013.2 |
| 20260506130527 | 13 | 0 | 0.0 | 8.0 | 0.00 | 0.00 | 0.00 | 52 | 1013.1 |
| 20260506130043 | 13 | 154 | 1.6 | 8.0 | 0.00 | 0.00 | 0.00 | 52 | 1013.0 |
| 20260506125525 | 12 | 154 | 3.2 | 8.0 | 0.00 | 0.00 | 0.00 | 52 | 1013.0 |
| 20260506125025 | 12 | 154 | 3.2 | 8.0 | 0.00 | 0.00 | 0.00 | 53 | 1012.8 |
| 20260506124538 | 12 | 160 | 4.8 | 8.0 | 0.00 | 0.00 | 0.00 | 53 | 1012.8 |
| 20260506124024 | 12 | 146 | 3.2 | 6.4 | 0.00 | 0.00 | 0.00 | 53 | 1012.8 |
| 20260506123526 | 12 | 146 | 1.6 | 6.4 | 0.00 | 0.00 | 0.00 | 53 | 1012.7 |
| 20260506123038 | 12 | 146 | 1.6 | 8.0 | 0.00 | 0.00 | 0.00 | 53 | 1012.7 |
| 20260506122524 | 12 | 146 | 1.6 | 9.7 | 0.00 | 0.00 | 0.00 | 53 | 1012.4 |
| 20260506122025 | 12 | 146 | 3.2 | 9.7 | 0.00 | 0.00 | 0.00 | 52 | 1012.5 |
| 20260506121543 | 12 | 165 | 3.2 | 8.0 | 0.00 | 0.00 | 0.00 | 53 | 1012.4 |
| 20260506121025 | 12 | 157 | 3.2 | 8.0 | 0.00 | 0.00 | 0.00 | 52 | 1012.3 |
| 20260506120527 | 12 | 148 | 4.8 | 8.0 | 0.00 | 0.00 | 0.00 | 52 | 1012.3 |
| 20260506120040 | 13 | 142 | 1.6 | 8.0 | 0.00 | 0.00 | 0.00 | 53 | 1012.3 |
| 20260506115525 | 13 | 142 | 3.2 | 8.0 | 0.00 | 0.00 | 0.00 | 52 | 1012.2 |
| 20260506115024 | 13 | 159 | 3.2 | 6.4 | 0.00 | 0.00 | 0.00 | 53 | 1012.2 |
| 20260506114539 | 13 | 157 | 1.6 | 4.8 | 0.00 | 0.00 | 0.00 | 53 | 1012.2 |
| 20260506114026 | 13 | 157 | 1.6 | 4.8 | 0.00 | 0.00 | 0.00 | 53 | 1012.2 |
| 20260506113525 | 13 | 157 | 1.6 | 4.8 | 0.00 | 0.00 | 0.00 | 54 | 1012.2 |
| 20260506113039 | 13 | 157 | 1.6 | 4.8 | 0.00 | 0.00 | 0.00 | 53 | 1012.2 |
| 20260506112524 | 13 | 0 | 0.0 | 3.2 | 0.00 | 0.00 | 0.00 | 54 | 1012.1 |
| 20260506112024 | 13 | 157 | 1.6 | 3.2 | 0.00 | 0.00 | 0.00 | 53 | 1012.1 |
| 20260506111538 | 13 | 0 | 1.6 | 3.2 | 0.00 | 0.00 | 0.00 | 53 | 1012.1 |
| 20260506111028 | 13 | 157 | 0.0 | 4.8 | 0.00 | 0.00 | 0.00 | 53 | 1012.1 |
| 20260506110527 | 13 | 157 | 1.6 | 4.8 | 0.00 | 0.00 | 0.00 | 52 | 1012.1 |
| 20260506110042 | 13 | 0 | 0.0 | 4.8 | 0.00 | 0.00 | 0.00 | 52 | 1012.0 |
| 20260506105524 | 13 | 157 | 0.0 | 8.0 | 0.00 | 0.00 | 0.00 | 53 | 1012.2 |
| 20260506105027 | 13 | 157 | 1.6 | 11.3 | 0.00 | 0.00 | 0.00 | 53 | 1012.1 |
| 20260506104546 | 13 | 157 | 4.8 | 11.3 | 0.00 | 0.00 | 0.00 | 54 | 1012.0 |
| 20260506104022 | 13 | 152 | 0.0 | 4.8 | 0.00 | 0.00 | 0.00 | 55 | 1012.0 |
| 20260506103524 | 13 | 0 | 0.0 | 8.0 | 0.00 | 0.00 | 0.00 | 56 | 1012.0 |
| 20260506103041 | 13 | 152 | 1.6 | 8.0 | 0.00 | 0.00 | 0.00 | 55 | 1011.9 |
| 20260506102525 | 13 | 152 | 3.2 | 6.4 | 0.00 | 0.00 | 0.00 | 56 | 1011.9 |
| 20260506102025 | 13 | 0 | 0.0 | 8.0 | 0.00 | 0.00 | 0.00 | 56 | 1011.9 |
| 20260506101539 | 14 | 194 | 1.6 | 8.0 | 0.00 | 0.00 | 0.00 | 55 | 1011.9 |
| 20260506101024 | 14 | 171 | 4.8 | 8.0 | 0.00 | 0.00 | 0.00 | 55 | 1011.8 |
| 20260506100525 | 13 | 119 | 1.6 | 4.8 | 0.00 | 0.00 | 0.00 | 55 | 1011.8 |
| 20260506100040 | 14 | 119 | 1.6 | 4.8 | 0.00 | 0.00 | 0.00 | 55 | 1011.8 |
| 20260506095524 | 14 | 0 | 0.0 | 4.8 | 0.00 | 0.00 | 0.00 | 54 | 1011.9 |
| 20260506095024 | 14 | 0 | 1.6 | 4.8 | 0.00 | 0.00 | 0.00 | 54 | 1011.8 |
| 20260506094554 | 14 | 0 | 1.6 | 4.8 | 0.00 | 0.00 | 0.00 | 54 | 1011.8 |
| 20260506094028 | 14 | 119 | 1.6 | 4.8 | 0.00 | 0.00 | 0.00 | 54 | 1011.8 |
| 20260506093524 | 14 | 119 | 1.6 | 4.8 | 0.00 | 0.00 | 0.00 | 54 | 1011.7 |
| 20260506093040 | 14 | 0 | 0.0 | 4.8 | 0.00 | 0.00 | 0.00 | 54 | 1011.7 |
| 20260506092525 | 14 | 119 | 1.6 | 4.8 | 0.00 | 0.00 | 0.00 | 53 | 1011.6 |
| 20260506092028 | 14 | 0 | 0.0 | 3.2 | 0.00 | 0.00 | 0.00 | 53 | 1011.6 |
| 20260506091540 | 14 | 0 | 0.0 | 4.8 | 0.00 | 0.00 | 0.00 | 53 | 1011.5 |
| 20260506091025 | 15 | 119 | 0.0 | 4.8 | 0.00 | 0.00 | 0.00 | 53 | 1011.5 |
| 20260506090524 | 15 | 119 | 3.2 | 4.8 | 0.00 | 0.00 | 0.00 | 53 | 1011.5 |
| 20260506090039 | 15 | 0 | 0.0 | 4.8 | 0.00 | 0.00 | 0.00 | 54 | 1011.5 |
| 20260506085524 | 15 | 119 | 1.6 | 4.8 | 0.00 | 0.13 | 0.00 | 53 | 1011.4 |
| 20260506085024 | 15 | 0 | 0.0 | 3.2 | 0.00 | 0.13 | 0.00 | 53 | 1011.4 |
| 20260506084542 | 15 | 0 | 0.0 | 3.2 | 0.00 | 0.13 | 0.00 | 53 | 1011.4 |
| 20260506084024 | 15 | 119 | 0.0 | 3.2 | 0.00 | 0.13 | 0.00 | 52 | 1011.4 |
| 20260506083524 | 15 | 0 | 0.0 | 3.2 | 0.00 | 0.13 | 0.00 | 52 | 1011.4 |
| 20260506083042 | 15 | 119 | 0.0 | 1.6 | 0.00 | 0.13 | 0.00 | 52 | 1011.3 |
| 20260506082527 | 15 | 0 | 0.0 | 1.6 | 0.00 | 0.13 | 0.00 | 52 | 1011.4 |
| 20260506082027 | 15 | 0 | 0.0 | 0.0 | 0.00 | 0.13 | 0.00 | 51 | 1011.4 |
| 20260506081540 | 15 | 0 | 0.0 | 3.2 | 0.00 | 0.13 | 0.00 | 51 | 1011.5 |
| 20260506081025 | 15 | 0 | 0.0 | 3.2 | 0.00 | 0.13 | 0.00 | 50 | 1011.5 |
| 20260506080525 | 15 | 0 | 0.0 | 1.6 | 0.00 | 0.13 | 0.00 | 49 | 1011.4 |
| 20260506073525 | 16 | 0 | 0.0 | 3.2 | 0.00 | 0.18 | 0.00 | 46 | 1011.5 |
| 20260506073040 | 16 | 0 | 0.0 | 3.2 | 0.00 | 0.18 | 0.00 | 46 | 1011.5 |
| 20260506072529 | 16 | 119 | 1.6 | 3.2 | 0.00 | 0.18 | 0.00 | 45 | 1011.5 |
| 20260506072024 | 16 | 119 | 0.0 | 3.2 | 0.00 | 0.18 | 0.00 | 45 | 1011.5 |
| 20260506071547 | 16 | 119 | 1.6 | 3.2 | 0.00 | 0.18 | 0.00 | 46 | 1011.3 |
| 20260506071024 | 16 | 0 | 0.0 | 3.2 | 0.00 | 0.18 | 0.00 | 46 | 1011.3 |
| 20260506070524 | 16 | 119 | 1.6 | 4.8 | 0.00 | 0.18 | 0.00 | 45 | 1011.3 |